Grants-Milan, NM

4:05 PM MDT on May 26, 2017 (GMT -0600)
Grants-Milan Municipal

Weather History for KGNT - March, 2013

Change the Weather History Date:

Tuesday, March 5, 2013

  Actual Average Record
Temperature  
Mean Temperature 38 °F -  
Max Temperature 61 °F 53 °F 70 °F (1986)
Min Temperature 15 °F 20 °F 3 °F (2002)
Degree Days  
Heating Degree Days 27    
Moisture  
Dew Point 14 °F    
Average Humidity 41    
Maximum Humidity 79    
Minimum Humidity 15    
Precipitation  
Precipitation 0.00 in - - ()
Sea Level Pressure  
Sea Level Pressure 30.24 in    
Wind  
Wind Speed 8 mph (SE)    
Max Wind Speed 18 mph    
Max Gust Speed 28 mph    
Visibility 10 miles    
Events      
Averages and records for this station are not official NWS values.
T = Trace of Precipitation, MM = Missing Value Source: NWS Daily Summary

Daily Weather History Graph

Daily Weather History Graph

Search for Another Location

Airport or City:

Trip Planner

Search our weather history database for the weather conditions in past years. The results will help you decide how hot, cold, wet, or windy it might be!

Date:

Astronomy

Mar. 05, 2013 Rise Set
Actual Time 6:35 AM MST 6:10 PM MST
Civil Twilight 6:10 AM MST 6:36 PM MST
Nautical Twilight 5:40 AM MST 7:05 PM MST
Astronomical Twilight 5:11 AM MST 7:35 PM MST
Moon 1:40 AM MST (3/5) 12:02 PM MST (3/5)
Length of Visible Light 12h 26m
Length of Day
11h 35m
Last Quarter, 40% of the Moon is Illuminated
Mar 5
Last Quarter
Mar 11
New
Mar 19
First Quarter
Mar 27
Full
Apr 2
Last Quarter

Hourly Weather History & Observations

Time (MST) Temp. Windchill Dew Point Humidity Pressure Visibility Wind Dir Wind Speed Gust Speed Precip Events Conditions
12:15 AM 27.3 °F 20.9 °F 15.4 °F 61% 30.20 in 10.0 mi NNW 5.8 mph - N/A   Clear
12:35 AM 25.2 °F 19.5 °F 14.0 °F 63% 30.21 in 10.0 mi NNW 4.6 mph - N/A   Clear
12:55 AM 24.4 °F 14.9 °F 14.0 °F 65% 30.22 in 10.0 mi NW 9.2 mph - N/A   Clear
1:15 AM 22.8 °F 12.9 °F 12.4 °F 64% 30.23 in 10.0 mi NW 9.2 mph - N/A   Clear
1:35 AM 23.2 °F 17.2 °F 13.6 °F 67% 30.23 in 10.0 mi NW 4.6 mph - N/A   Clear
1:55 AM 23.0 °F 13.1 °F 14.2 °F 69% 30.24 in 10.0 mi NW 9.2 mph - N/A   Clear
2:15 AM 23.9 °F 18.0 °F 14.5 °F 67% 30.24 in 10.0 mi NW 4.6 mph - N/A   Clear
2:35 AM 21.0 °F 14.6 °F 13.5 °F 73% 30.24 in 10.0 mi NW 4.6 mph - N/A   Clear
2:55 AM 23.2 °F 15.0 °F 14.0 °F 68% 30.24 in 10.0 mi NW 6.9 mph - N/A   Clear
3:15 AM 18.9 °F 13.7 °F 11.5 °F 73% 30.25 in 10.0 mi NW 3.5 mph - N/A   Clear
3:35 AM 18.9 °F - 11.8 °F 74% 30.26 in 10.0 mi Calm Calm - N/A   Clear
3:55 AM 20.1 °F 15.2 °F 12.2 °F 71% 30.26 in 10.0 mi NNW 3.5 mph - N/A   Clear
4:15 AM 15.3 °F 5.4 °F 9.3 °F 77% 30.27 in 10.0 mi NW 6.9 mph - N/A   Clear
4:35 AM 21.2 °F 11.7 °F 13.5 °F 72% 30.27 in 10.0 mi WNW 8.1 mph - N/A   Clear
4:55 AM 22.8 °F 14.5 °F 14.4 °F 70% 30.28 in 10.0 mi WNW 6.9 mph - N/A   Clear
5:15 AM 18.9 °F 8.8 °F 11.7 °F 74% 30.29 in 10.0 mi NNW 8.1 mph - N/A   Clear
5:35 AM 18.7 °F 7.8 °F 12.0 °F 75% 30.28 in 10.0 mi NW 9.2 mph - N/A   Clear
5:55 AM 19.0 °F 9.0 °F 12.7 °F 76% 30.29 in 10.0 mi NW 8.1 mph - N/A   Clear
6:15 AM 19.0 °F 9.0 °F 12.2 °F 75% 30.29 in 10.0 mi NW 8.1 mph - N/A   Clear
6:35 AM 18.5 °F 8.4 °F 12.0 °F 76% 30.29 in 10.0 mi NW 8.1 mph - N/A   Clear
6:55 AM 16.9 °F 8.5 °F 11.5 °F 79% 30.30 in 10.0 mi WNW 5.8 mph - N/A   Clear
7:15 AM 19.4 °F 14.3 °F 12.4 °F 74% 30.30 in 10.0 mi NW 3.5 mph - N/A   Clear
7:35 AM 22.6 °F 15.3 °F 13.8 °F 69% 30.32 in 10.0 mi WNW 5.8 mph - N/A   Clear
7:55 AM 24.8 °F 17.9 °F 14.5 °F 65% 30.33 in 10.0 mi NW 5.8 mph - N/A   Clear
8:15 AM 27.7 °F 23.8 °F 15.4 °F 60% 30.34 in 10.0 mi NNW 3.5 mph - N/A   Clear
8:35 AM 30.2 °F - 16.3 °F 56% 30.33 in 10.0 mi Calm Calm - N/A   Clear
8:55 AM 34.3 °F - 17.2 °F 50% 30.33 in 10.0 mi Calm Calm - N/A   Clear
9:15 AM 39.4 °F 37.2 °F 17.1 °F 41% 30.33 in 10.0 mi East 3.5 mph - N/A   Clear
9:35 AM 42.3 °F 39.4 °F 16.9 °F 36% 30.32 in 10.0 mi ESE 4.6 mph - N/A   Clear
9:55 AM 44.4 °F - 17.4 °F 34% 30.32 in 10.0 mi Calm Calm - N/A   Clear
10:15 AM 47.1 °F - 17.4 °F 31% 30.30 in 10.0 mi SE 3.5 mph - N/A   Clear
10:35 AM 50.0 °F - 17.4 °F 28% 30.30 in 10.0 mi SE 6.9 mph - N/A   Clear
10:55 AM 50.9 °F - 15.4 °F 24% 30.31 in 10.0 mi SSE 6.9 mph - N/A   Clear
11:15 AM 52.5 °F - 12.6 °F 20% 30.30 in 10.0 mi East 4.6 mph - N/A   Clear
11:35 AM 53.6 °F - 11.7 °F 19% 30.29 in 10.0 mi SE 4.6 mph - N/A   Clear
11:55 AM 54.7 °F - 9.0 °F 16% 30.29 in 10.0 mi SSE 5.8 mph - N/A   Clear
12:15 PM 55.6 °F - 11.1 °F 17% 30.28 in 10.0 mi SSE 6.9 mph - N/A   Clear
12:35 PM 56.8 °F - 12.0 °F 17% 30.26 in 10.0 mi ESE 9.2 mph 16.1 mph N/A   Clear
12:55 PM 57.7 °F - 11.5 °F 16% 30.26 in 10.0 mi SE 11.5 mph 19.6 mph N/A   Clear
1:15 PM 59.4 °F - 12.2 °F 16% 30.24 in 10.0 mi East 10.4 mph 19.6 mph N/A   Clear
1:35 PM 59.2 °F - 12.9 °F 16% 30.23 in 10.0 mi SE 17.3 mph 21.9 mph N/A   Clear
1:55 PM 59.7 °F - 13.5 °F 16% 30.22 in 10.0 mi ESE 11.5 mph 18.4 mph N/A   Clear
2:15 PM 59.7 °F - 12.7 °F 16% 30.21 in 10.0 mi East 11.5 mph 21.9 mph N/A   Clear
2:35 PM 61.0 °F - 13.1 °F 15% 30.20 in 10.0 mi ESE 13.8 mph 19.6 mph N/A   Clear
2:55 PM 60.8 °F - 12.4 °F 15% 30.20 in 10.0 mi ESE 10.4 mph 23.0 mph N/A   Clear
3:15 PM 60.3 °F - 11.7 °F 15% 30.20 in 10.0 mi ESE 16.1 mph 24.2 mph N/A   Clear
3:35 PM 60.4 °F - 12.9 °F 16% 30.19 in 10.0 mi ESE 17.3 mph 27.6 mph N/A   Clear
3:55 PM 59.5 °F - 13.5 °F 16% 30.18 in 10.0 mi ESE 18.4 mph 26.5 mph N/A   Clear
4:15 PM 58.8 °F - 14.9 °F 18% 30.18 in 10.0 mi ESE 12.7 mph 24.2 mph N/A   Clear
4:35 PM 57.6 °F - 14.9 °F 19% 30.18 in 10.0 mi SE 16.1 mph 21.9 mph N/A   Clear
4:55 PM 56.3 °F - 15.4 °F 20% 30.18 in 10.0 mi ESE 16.1 mph 24.2 mph N/A   Clear
5:15 PM 55.9 °F - 15.6 °F 21% 30.18 in 10.0 mi SE 16.1 mph 25.3 mph N/A   Clear
5:35 PM 55.4 °F - 16.5 °F 22% 30.18 in 10.0 mi SE 16.1 mph 23.0 mph N/A   Clear
5:55 PM 54.3 °F - 16.7 °F 23% 30.18 in 10.0 mi SE 15.0 mph 24.2 mph N/A   Clear
6:15 PM 52.7 °F - 16.5 °F 24% 30.18 in 10.0 mi SE 15.0 mph 21.9 mph N/A   Clear
6:35 PM 51.3 °F - 16.2 °F 25% 30.19 in 10.0 mi SSE 11.5 mph 17.3 mph N/A   Clear
6:55 PM 50.7 °F - 16.7 °F 26% 30.20 in 10.0 mi SSE 15.0 mph - N/A   Clear
7:15 PM 49.6 °F - 16.2 °F 26% 30.20 in 10.0 mi SSE 12.7 mph - N/A   Clear
7:35 PM 50.2 °F - 16.3 °F 26% 30.20 in 10.0 mi SSE 11.5 mph 21.9 mph N/A   Clear
7:55 PM 49.5 °F - 16.2 °F 27% 30.20 in 10.0 mi SSE 12.7 mph - N/A   Clear
8:15 PM 50.0 °F - 16.3 °F 26% 30.20 in 10.0 mi SSE 12.7 mph - N/A   Clear
8:35 PM 49.3 °F - 16.5 °F 27% 30.21 in 10.0 mi SSE 10.4 mph 17.3 mph N/A   Clear
8:55 PM 49.1 °F - 16.7 °F 28% 30.21 in 10.0 mi SSE 12.7 mph 18.4 mph N/A   Clear
9:15 PM 48.7 °F - 16.7 °F 28% 30.21 in 10.0 mi South 11.5 mph - N/A   Clear
9:35 PM 48.4 °F - 16.9 °F 29% 30.22 in 10.0 mi SSE 11.5 mph - N/A   Clear
9:55 PM 48.2 °F - 17.1 °F 29% 30.22 in 10.0 mi South 10.4 mph - N/A   Clear
10:15 PM 47.8 °F - 17.1 °F 29% 30.22 in 10.0 mi SSE 9.2 mph - N/A   Clear
10:35 PM 46.4 °F 42.9 °F 16.7 °F 31% 30.23 in 10.0 mi SSW 6.9 mph - N/A   Clear
10:55 PM 45.0 °F 40.1 °F 16.7 °F 32% 30.22 in 10.0 mi SSE 9.2 mph - N/A   Clear
11:15 PM 44.2 °F - 16.5 °F 33% 30.22 in 10.0 mi Calm Calm - N/A   Clear
11:35 PM 41.2 °F - 16.2 °F 36% 30.21 in 10.0 mi Calm Calm - N/A   Clear
11:55 PM 41.5 °F - 16.3 °F 36% 30.21 in 10.0 mi Calm Calm - N/A   Clear